Hauptseite
METAR-TAF:

METAR-TAF

Flughäfen :

Meppen, Deutschland

Fliegerhorst Meppen

Breite: 52-43-24N, Länge: 007-19-35E, Höhe: 21 m

Beobachtung

Neuester Wetterbericht von vor 24 Minuten, um 10:20 UTC
Wind 4 kt aus Ost/Nordost
Temperatur 15°C
Luftfeuchtigkeit 82%
Luftdruck 1023 hPa
Sichtweite: 8000 m
Leicht bewölkt in der Höhe von 1200 ft
Durchbrochene Bewölkung in der Höhe von 2200 ft

METAR: ETWM 261020Z 07004KT 8000 FEW012 BKN022 15/12 Q1023 WHT

Zeit: 12:44 (10:44 UTC)


TAF: fehlend

Wetterbeobachtungen und Prognosen von mehr als 4000 Flughäfen (METAR und TAF Bericht).

Die verfügbaren Stationen werden durch gelbe und rote Markierungen auf der Karte dargestellt.

Führen Sie die Maus auf sie, um den Namen der Station zu sehen.

Darauf klicken, um die Beobachtung von Wetterbeobachtungen und Prognosen zu sehen.

Um die Karte zu ändern : klicken Sie auf den grünen Tasten mit einem schwarzen Kreuz Zum Vergrößern, auf den grünen Button mit einem Gedankenstrich zu verkleinern, oder auf die grünen Pfeile für benachbarte Karten.


METAR-TAF: